Regional Weather Roundup
Issued by NWS

Home | Current Version | Previous Version | Text Only | Print | Product List | Glossary Off
Versions: 1 2 3 4 5 6 7 8 9 10 11 12 13 14 15 16 17 18 19 20 21 22 23 24 25 26 27 28 29 30 31 32 33 34 35 36 37 38 39 40 41 42 43 44 45 46 47 48 49 50

000
ASUS43 KMPX 251910
RWRMN
WEATHER ROUNDUP FOR MINNESOTA
NATIONAL WEATHER SERVICE TWIN CITIES/CHANHASSEN MN
100 PM CST SAT FEB 25 2017


NOTE: "FAIR" INDICATES FEW OR NO CLOUDS BELOW 12,000 FEET WITH NO
SIGNIFICANT WEATHER AND/OR OBSTRUCTIONS TO VISIBILITY. N/A MEANS
CURRENT SKY AND/OR WEATHER CONDITIONS ARE NOT AVAILABLE.

MNZ060>063-068>070-252000-
   Twin Cities Metro

CITY           SKY/WX    TMP DP  RH WIND       PRES   REMARKS
TWIN CITIES    SUNNY     31   8  38 NW9       29.92F WCI  23
ST PAUL        SUNNY     30   8  39 NW9G21    29.93F WCI  22
CRYSTAL        SUNNY     29   8  41 VRB7G17   29.90F WCI  22
BLAINE         MOSUNNY   30   9  40 W12G17    29.91F WCI  21
LAKEVILLE      SUNNY     28  14  54 W10       29.92F WCI  19
EDEN PRAIRIE   SUNNY     32  11  41 W12       29.91F WCI  23
SOUTH ST PAUL  SUNNY     31   8  38 NW9G20    29.92F WCI  23
LAKE ELMO      FAIR      30  10  43 NW9       29.91F WCI  22
$$
MNZ001>005-007-008-013>017-022>024-027-028-252000-
   Northwest Minnesota

CITY           SKY/WX    TMP DP  RH WIND       PRES   REMARKS
BEMIDJI        CLOUDY    28  19  68 W14       29.76F WCI  17
HALLOCK        CLOUDY    25  21  86 W10       29.79F WCI  15
ROSEAU         CLOUDY    23  18  80 W6        29.75F WCI  16
WARROAD        CLOUDY    21  16  79 SW8       29.76F WCI  12
THIEF RVR FALL   N/A    N/A N/A N/A W14       29.79
CROOKSTON      CLOUDY    28  23  80 W9        29.81F WCI  20
FOSSTON        PTSUNNY   28  19  69 SW13      29.79F WCI  18
DETROIT LAKES  FLURRIES  28  23  80 W10       29.82F WCI  19
MOORHEAD       LGT RAIN  28  21  74 W10       29.84F WCI  19
PARK RAPIDS    PTSUNNY   27  16  63 SW12      29.79F WCI  17
MAHNOMEN       FLURRIES  28  21  75 SW16G22   29.80F WCI  16
$$
MNZ006-009>011-018-025>026-252000-
   North Central Minnesota

CITY           SKY/WX    TMP DP  RH WIND       PRES   REMARKS
BAUDETTE       LGT SNOW  19  12  74 S9        29.75F WCI   8
FLAG ISLAND    FLURRIES  16  10  79 S16       29.74F WCI   0
INTL FALLS     CLOUDY    18   8  65 W6        29.76F WCI  10
WASKISH        LGT SNOW  21  14  73 W5        29.77F WCI  15
BIG FORK       LGT SNOW  19  12  73 SW5       29.78F WCI  13
LONGVILLE      PTSUNNY   27  16  63 SW9       29.80F WCI  17
GRAND RAPIDS   FLURRIES  23  10  57 VRB6      29.82F WCI  16
CRANE LAKE     SUNNY     19   1  45 N6        29.78F WCI  11
ORR            CLOUDY    19   7  58 CALM      29.74F
COOK           CLOUDY    19   7  58 W8        29.78F WCI   9
WALKER         MOCLDY    26  15  63 W9G20     29.78F WCI  17
$$
MNZ012-019>021-037-252000-
   Northeast Minnesota

CITY           SKY/WX    TMP DP  RH WIND       PRES   REMARKS
DULUTH         MOSUNNY   21   8  57 W8        29.78F WCI  11
ELY            SUNNY     19   1  45 NW10G18   29.73F WCI   8
HIBBING        CLOUDY    19   5  54 NW10      29.78F WCI   7
EVELETH        MOSUNNY   20  -3  35 NW6       29.79S WCI  13
DULUTH HARBOR  MOSUNNY   25   9  50 W3        29.85F
TWO HARBORS    SUNNY     27   9  46 NW8G20    29.76F WCI  18
SILVER BAY     SUNNY     25   3  39 NW10G20   29.74S WCI  15
GRAND MARAIS     N/A     26   4  38 VRB7G21   29.72F WCI  18
G MARAIS ARPRT SUNNY     18   0  45 NW15G25   29.63S WCI   3
$$
MNZ029>031-032-039>041-046>048-054>057-064-252000-
   West Central Minnesota

CITY           SKY/WX    TMP DP  RH WIND       PRES   REMARKS
FERGUS FALLS   FLURRIES  30  19  64 W14       29.89F WCI  20
WHEATON        CLOUDY    36  19  51 SW14      29.88F
MORRIS         PTSUNNY   34  19  55 SW16      29.87F WCI  23
ALEXANDRIA     CLOUDY    30  16  56 W16       29.86F WCI  19
ELBOW LAKE     PTSUNNY   31  20  65 SW15      29.86F HAZE    WCI  20
WADENA         PTSUNNY   28  18  64 W17       29.82F WCI  16
GLENWOOD       PTSUNNY   30  18  59 SW17      29.87F WCI  18
APPLETON       PTSUNNY   37  18  44 SW16      29.88F
BENSON         CLOUDY    36  14  41 W15       29.91F
ORTONVILLE     PTSUNNY   36  18  48 SW9       29.88F
MADISON        MOSUNNY   37  19  48 W16G22    29.90F
WILLMAR        PTSUNNY   30  21  69 SW13      29.92F WCI  20
$$
MNZ033>034-036-042>043-049>051-058-059-252000-
   Central Minnesota

CITY           SKY/WX    TMP DP  RH WIND       PRES   REMARKS
ST CLOUD       MOSUNNY   30  15  53 W9        29.88F WCI  22
SAUK CENTRE    CLOUDY    30  15  55 W13G18    29.87F WCI  20
PAYNESVILLE    CLOUDY    29  18  62 W13       29.90F WCI  19
AITKIN         SUNNY     28  10  47 W6        29.82F WCI  22
PINE RIVER     MOSUNNY   27  16  63 SW7       29.85F WCI  19
BRAINERD       PTSUNNY   26  15  63 SW15      29.84F WCI  14
STAPLES        CLOUDY    28  18  64 W12       29.83F WCI  18
LONG PRAIRIE   PTSUNNY   30  16  55 SW10G21   29.86F WCI  21
LITTLE FALLS   CLOUDY    30  14  51 W9        29.86F WCI  22
LITCHFIELD     CLOUDY    32  18  55 SW8       29.91F WCI  25
BUFFALO        SUNNY     31  14  50 W9        29.92F WCI  23
MAPLE LAKE     MOSUNNY   32  18  55 W7        29.91F WCI  26
HUTCHINSON     MOSUNNY   32  21  65 W14       29.93F WCI  22
$$
MNZ037-044-045-052-053-252000-
   East Central Minnesota

CITY           SKY/WX    TMP DP  RH WIND       PRES   REMARKS
PRINCETON      PTSUNNY   32  12  43 W8G16     29.89F WCI  25
MORA           MOSUNNY   28  10  47 NW6       29.89F WCI  22
CAMBRIDGE      SUNNY     30  16  55 W7        29.87F WCI  23
RUSH CITY      SUNNY     28   9  43 NW8       29.89F WCI  20
MOOSE LAKE     PTSUNNY   27  10  50 NW8       29.83F WCI  18
HINCKLEY       FAIR      28  10  47 W8        29.86F WCI  20
CLOQUET        CLOUDY    21   9  58 NW12G17   29.80F WCI   9
MCGREGOR       MOSUNNY   27  12  54 W6        29.83F WCI  20
$$
MNZ071>073-080-081-089-090-097-098-252000-
   Southwest Minnesota

CITY           SKY/WX    TMP DP  RH WIND       PRES   REMARKS
MONTEVIDEO     PTSUNNY   36  19  51 W10       29.92F
GRANITE FALLS  PTSUNNY   37  22  54 SW14      29.93F
CANBY          SUNNY     35  17  48 SW15G24   29.92F WCI  25
MARSHALL       MOSUNNY   34  16  47 W17G24    29.92F WCI  23
REDWOOD FALLS  SUNNY     32  14  47 W14       29.94F WCI  22
OLIVIA         SUNNY     34  21  60 W12G17    29.92F WCI  25
PIPESTONE      MOSUNNY   28  18  64 SW15      29.93F WCI  17
WINDOM         SUNNY     28  19  69 SW12      29.95F WCI  18
WORTHINGTON    CLOUDY    25  18  74 SW16      29.96F WCI  12
JACKSON        PTSUNNY   27  18  69 SW14      29.97F WCI  15
TRACY          MOSUNNY   34  21  60 SW17      29.94F WCI  23
SLAYTON        CLOUDY    28  19  69 SW14      29.94F WCI  17
$$
MNZ065>067-074>077-082>085-091>093-252000-
   South Central Minnesota

CITY           SKY/WX    TMP DP  RH WIND       PRES   REMARKS
MANKATO          N/A     28  16  60 W12       29.95F WCI  18
NEW ULM        SUNNY     30  16  55 SW10      29.95F WCI  21
ST JAMES       SUNNY     27  18  69 SW10      29.98F WCI  17
FAIRMONT       SUNNY     26  14  60 W9        29.99F WCI  17
GLENCOE        SUNNY     31  21  67 W7        29.93F WCI  24
FARIBAULT      SUNNY     28  12  50 W9        29.94F WCI  20
OWATONNA       SUNNY     25  10  54 W10       29.94F WCI  15
WASECA         SUNNY     27  14  59 W10       29.97F WCI  17
ALBERT LEA     SUNNY     23  14  68 W8        29.97S WCI  14
$$
MNZ078>079-086>088-094>096-252000-
   Southeast Minnesota

CITY           SKY/WX    TMP DP  RH WIND       PRES   REMARKS
ROCHESTER      SUNNY     21   9  59 NW17      29.93S WCI   7
RED WING       SUNNY     27   3  36 W12       29.93S WCI  16
STANTON        SUNNY     28  10  45 W7        29.93F WCI  21
WINONA         SUNNY     27  10  50 W8G17     29.95S WCI  18
AUSTIN         SUNNY     21  10  63 NW14      29.96S WCI   8
PRESTON        SUNNY     20   8  58 NW15      29.94S WCI   7
$$
ABBREVIATIONS USED IN REMARKS
   TC - TEMPERATURES IN CELSIUS
  WCI - WIND CHILL INDEX
   HX - HEAT INDEX
  VSB - VISIBILITY
$$




USA.gov is the U.S. government's official web portal to all federal, state and local government web resources and services.